| time (UTC) | temp F | wind direction | speed knots | gust knots | rain 1hr in | rain 24hr in | rain mn in | humidity % | barometer mb |
| 20260509054106 | 57 | 234 | 3.5 | 7.0 | 0.00 | 0.59 | 0.04 | 83 | 1002.8 |
| 20260509053104 | 57 | 244 | 3.5 | 7.8 | 0.00 | 0.59 | 0.04 | 82 | 1002.7 |
| 20260509052059 | 58 | 242 | 1.7 | 4.3 | 0.00 | 0.61 | 0.04 | 82 | 1002.7 |
| 20260509051056 | 58 | 205 | 1.7 | 6.1 | 0.00 | 0.61 | 0.04 | 81 | 1002.7 |
| 20260509050052 | 58 | 255 | 1.7 | 3.5 | 0.00 | 0.61 | 0.04 | 80 | 1002.8 |
| 20260509045048 | 59 | 243 | 1.7 | 3.5 | 0.00 | 0.63 | 0.04 | 79 | 1002.8 |
| 20260509044046 | 60 | 289 | 2.6 | 7.0 | 0.00 | 0.63 | 0.04 | 78 | 1002.9 |
| 20260509043044 | 61 | 271 | 4.3 | 7.8 | 0.00 | 0.64 | 0.04 | 79 | 1002.9 |
| 20260509042038 | 62 | 255 | 1.7 | 4.3 | 0.00 | 0.65 | 0.04 | 81 | 1002.9 |
| 20260509041034 | 61 | 278 | 1.7 | 4.3 | 0.00 | 0.65 | 0.04 | 80 | 1002.8 |
| 20260509040052 | 61 | 259 | 2.6 | 4.3 | 0.00 | 0.65 | 0.04 | 81 | 1002.9 |
| 20260509035028 | 61 | 267 | 4.3 | 7.8 | 0.00 | 0.66 | 0.04 | 81 | 1002.9 |
| 20260509034024 | 63 | 238 | 4.3 | 9.6 | 0.00 | 0.66 | 0.04 | 84 | 1002.9 |
| 20260509033021 | 61 | 247 | 3.5 | 7.0 | 0.00 | 0.66 | 0.04 | 84 | 1002.8 |
| 20260509032017 | 60 | 248 | 2.6 | 6.1 | 0.00 | 0.66 | 0.04 | 83 | 1002.9 |
| 20260509031135 | 60 | 301 | 5.2 | 10.4 | 0.00 | 0.66 | 0.04 | 83 | 1003.1 |
| 20260509030111 | 60 | 297 | 6.1 | 10.4 | 0.00 | 0.66 | 0.04 | 83 | 1003.2 |
| 20260509025107 | 60 | 308 | 6.1 | 12.2 | 0.00 | 0.66 | 0.04 | 84 | 1003.1 |
| 20260509024103 | 61 | 247 | 3.5 | 6.1 | 0.00 | 0.66 | 0.04 | 85 | 1003.2 |
| 20260509023059 | 61 | 245 | 4.3 | 9.6 | 0.00 | 0.66 | 0.04 | 85 | 1003.1 |
| 20260509022055 | 60 | 261 | 4.3 | 7.8 | 0.00 | 0.66 | 0.04 | 85 | 1003.1 |
| 20260509021052 | 61 | 281 | 4.3 | 8.7 | 0.00 | 0.66 | 0.04 | 85 | 1003.2 |
| 20260509020049 | 61 | 270 | 1.7 | 3.5 | 0.00 | 0.66 | 0.04 | 89 | 1003.1 |
| 20260509015047 | 61 | 270 | 2.6 | 8.7 | 0.00 | 0.66 | 0.04 | 89 | 1003.2 |
| 20260509014041 | 60 | 276 | 6.1 | 10.4 | 0.00 | 0.66 | 0.04 | 89 | 1003.1 |
| 20260509013039 | 61 | 278 | 4.3 | 7.8 | 0.00 | 0.66 | 0.04 | 91 | 1003.0 |
| 20260509012035 | 60 | 261 | 4.3 | 9.6 | 0.00 | 0.66 | 0.04 | 92 | 1003.0 |
| 20260509011031 | 60 | 264 | 4.3 | 9.6 | 0.00 | 0.66 | 0.04 | 93 | 1003.1 |
| 20260509010027 | 60 | 242 | 3.5 | 7.8 | 0.00 | 0.66 | 0.04 | 94 | 1003.4 |
| 20260509005025 | 59 | 280 | 5.2 | 13.0 | 0.00 | 0.66 | 0.04 | 95 | 1003.5 |
| 20260509004020 | 59 | 294 | 7.8 | 13.0 | 0.00 | 0.66 | 0.04 | 96 | 1003.6 |
| 20260509003016 | 59 | 274 | 8.7 | 13.9 | 0.00 | 0.66 | 0.04 | 96 | 1003.6 |
| 20260509002115 | 59 | 297 | 8.7 | 16.5 | 0.00 | 0.66 | 0.04 | 96 | 1003.8 |
| 20260509001110 | 59 | 306 | 10.4 | 15.6 | 0.00 | 0.66 | 0.04 | 97 | 1003.8 |
| 20260509000131 | 59 | 313 | 12.2 | 18.2 | 0.00 | 0.66 | 0.04 | 98 | 1004.0 |
| 20260508235104 | 59 | 312 | 11.3 | 15.6 | 0.00 | 0.66 | 0.04 | 99 | 1004.2 |
| 20260508234120 | 59 | 313 | 11.3 | 17.4 | 0.00 | 0.66 | 0.04 | 99 | 1004.3 |
| 20260508233056 | 59 | 313 | 11.3 | 16.5 | 0.00 | 0.66 | 0.04 | 99 | 1004.3 |
| 20260508232115 | 58 | 311 | 9.6 | 15.6 | 0.01 | 0.66 | 0.04 | 99 | 1004.2 |
| 20260508231049 | 58 | 306 | 10.4 | 14.8 | 0.01 | 0.66 | 0.04 | 98 | 1004.3 |
| 20260508230046 | 58 | 315 | 10.4 | 14.8 | 0.01 | 0.66 | 0.04 | 97 | 1004.2 |
| 20260508225042 | 58 | 315 | 11.3 | 15.6 | 0.02 | 0.66 | 0.04 | 95 | 1004.3 |
| 20260508224041 | 58 | 321 | 13.9 | 20.9 | 0.02 | 0.66 | 0.04 | 94 | 1004.1 |
| 20260508223037 | 59 | 317 | 15.6 | 29.5 | 0.02 | 0.66 | 0.04 | 95 | 1003.9 |
| 20260508222031 | 58 | 318 | 14.8 | 20.9 | 0.01 | 0.65 | 0.02 | 95 | 1003.9 |
| 20260508221030 | 58 | 315 | 11.3 | 18.2 | 0.01 | 0.65 | 0.02 | 93 | 1003.9 |
| 20260508220026 | 58 | 299 | 13.9 | 20.0 | 0.01 | 0.65 | 0.02 | 91 | 1003.8 |
| 20260508215021 | 58 | 312 | 13.9 | 20.0 | 0.00 | 0.64 | 0.01 | 90 | 1003.7 |
| 20260508214018 | 59 | 315 | 14.8 | 19.1 | 0.00 | 0.64 | 0.01 | 91 | 1003.7 |
| 20260508213114 | 58 | 322 | 13.9 | 19.1 | 0.00 | 0.64 | 0.01 | 90 | 1003.7 |
| 20260508212111 | 58 | 315 | 16.5 | 23.5 | 0.00 | 0.64 | 0.01 | 87 | 1003.7 |
| 20260508211109 | 59 | 323 | 13.9 | 20.0 | 0.00 | 0.64 | 0.01 | 84 | 1003.7 |
| 20260508210104 | 59 | 337 | 16.5 | 21.7 | 0.00 | 0.64 | 0.01 | 85 | 1003.6 |
| 20260508205100 | 59 | 340 | 13.0 | 20.9 | 0.00 | 0.64 | 0.01 | 88 | 1003.5 |
| 20260508204058 | 58 | 343 | 13.0 | 17.4 | 0.00 | 0.64 | 0.01 | 92 | 1003.6 |
| 20260508203053 | 58 | 341 | 14.8 | 18.2 | 0.00 | 0.64 | 0.01 | 95 | 1003.7 |
| 20260508202050 | 58 | 321 | 12.2 | 17.4 | 0.00 | 0.64 | 0.01 | 97 | 1003.6 |
| 20260508201049 | 58 | 337 | 11.3 | 17.4 | 0.00 | 0.64 | 0.01 | 99 | 1003.5 |
| 20260508200045 | 58 | 323 | 11.3 | 15.6 | 0.00 | 0.64 | 0.01 | 99 | 1003.4 |
| 20260508195039 | 58 | 309 | 13.9 | 18.2 | 0.00 | 0.64 | 0.01 | 99 | 1003.4 |
| 20260508194036 | 58 | 345 | 12.2 | 16.5 | 0.00 | 0.64 | 0.01 | 99 | 1003.2 |
| 20260508193033 | 58 | 357 | 10.4 | 14.8 | 0.00 | 0.64 | 0.01 | 99 | 1003.3 |
| 20260508192052 | 57 | 354 | 7.8 | 12.2 | 0.00 | 0.64 | 0.01 | 99 | 1003.4 |
| 20260508191027 | 56 | 347 | 6.1 | 9.6 | 0.00 | 0.64 | 0.01 | 99 | 1003.5 |
| 20260508190022 | 56 | 0 | 6.1 | 10.4 | 0.01 | 0.64 | 0.01 | 99 | 1003.4 |
| 20260508185020 | 56 | 8 | 7.0 | 9.6 | 0.01 | 0.64 | 0.01 | 99 | 1003.4 |
| 20260508184038 | 56 | 357 | 6.1 | 8.7 | 0.01 | 0.64 | 0.01 | 99 | 1003.5 |
| 20260508183115 | 56 | 10 | 7.8 | 13.0 | 0.01 | 0.64 | 0.01 | 99 | 1003.3 |
| 20260508182111 | 57 | 345 | 11.3 | 14.8 | 0.01 | 0.64 | 0.01 | 99 | 1003.2 |
| 20260508181105 | 58 | 303 | 10.4 | 16.5 | 0.01 | 0.64 | 0.01 | 99 | 1003.2 |
| 20260508175058 | 58 | 330 | 10.4 | 17.4 | 0.00 | 0.63 | 0.00 | 99 | 1003.1 |
| 20260508174057 | 58 | 320 | 12.2 | 17.4 | 0.00 | 0.63 | 0.00 | 99 | 1002.9 |
| 20260508173051 | 59 | 319 | 15.6 | 21.7 | 0.00 | 0.63 | 0.00 | 99 | 1003.1 |
| 20260508172049 | 59 | 314 | 16.5 | 22.6 | 0.00 | 0.63 | 0.00 | 99 | 1003.0 |
| 20260508171044 | 59 | 351 | 13.9 | 18.2 | 0.00 | 0.63 | 0.00 | 99 | 1002.7 |
| 20260508170040 | 59 | 332 | 13.0 | 21.7 | 0.00 | 0.63 | 0.00 | 99 | 1002.8 |
| 20260508165038 | 59 | 288 | 14.8 | 20.9 | 0.00 | 0.63 | 0.00 | 99 | 1002.9 |
| 20260508164033 | 59 | 330 | 14.8 | 19.1 | 0.00 | 0.63 | 0.00 | 99 | 1002.9 |
| 20260508163029 | 59 | 351 | 14.8 | 18.2 | 0.00 | 0.63 | 0.00 | 99 | 1002.8 |
| 20260508162047 | 59 | 323 | 10.4 | 16.5 | 0.00 | 0.63 | 0.00 | 99 | 1002.9 |
| 20260508161103 | 59 | 332 | 11.3 | 14.8 | 0.00 | 0.63 | 0.00 | 99 | 1003.0 |
| 20260508160021 | 59 | 322 | 9.6 | 13.0 | 0.00 | 0.63 | 0.00 | 99 | 1003.1 |
| 20260508155016 | 58 | 339 | 7.8 | 12.2 | 0.00 | 0.63 | 0.00 | 99 | 1003.3 |
| 20260508154133 | 58 | 339 | 7.8 | 11.3 | 0.00 | 0.63 | 0.00 | 99 | 1003.3 |
| 20260508153109 | 58 | 356 | 7.0 | 10.4 | 0.00 | 0.63 | 0.00 | 99 | 1003.5 |
| 20260508152106 | 58 | 342 | 6.1 | 9.6 | 0.00 | 0.63 | 0.00 | 99 | 1003.6 |
| 20260508151101 | 58 | 322 | 1.7 | 9.6 | 0.00 | 0.63 | 0.00 | 99 | 1003.7 |
| 20260508150100 | 58 | 335 | 1.7 | 9.6 | 0.00 | 0.63 | 0.00 | 99 | 1003.6 |
| 20260508145054 | 59 | 270 | 0.9 | 8.7 | 0.00 | 0.63 | 0.00 | 99 | 1003.5 |
| 20260508144116 | 59 | 311 | 0.9 | 7.0 | 0.00 | 0.63 | 0.00 | 99 | 1003.5 |
| 20260508143048 | 59 | 301 | 0.9 | 7.0 | 0.00 | 0.63 | 0.00 | 99 | 1003.6 |
| 20260508142045 | 59 | 328 | 0.9 | 5.2 | 0.00 | 0.63 | 0.00 | 99 | 1003.6 |
| 20260508141042 | 59 | 293 | 0.0 | 7.0 | 0.00 | 0.63 | 0.00 | 99 | 1003.6 |
| 20260508140101 | 59 | 0.0 | 0.0 | 0.00 | 0.63 | 0.00 | 99 | 1003.7 | |
| 20260508135033 | 59 | 309 | 0.0 | 6.1 | 0.00 | 0.63 | 0.00 | 99 | 1003.8 |
| 20260508134032 | 59 | 321 | 0.9 | 7.0 | 0.00 | 0.63 | 0.00 | 99 | 1003.9 |
| 20260508133026 | 59 | 345 | 0.9 | 7.0 | 0.00 | 0.63 | 0.00 | 99 | 1004.0 |
| 20260508132023 | 59 | 332 | 0.0 | 6.1 | 0.00 | 0.63 | 0.00 | 99 | 1004.0 |
| 20260508131020 | 59 | 351 | 0.0 | 7.0 | 0.00 | 0.63 | 0.00 | 99 | 1004.2 |
| 20260508130036 | 59 | 329 | 1.7 | 7.0 | 0.00 | 0.63 | 0.00 | 99 | 1004.2 |
| 20260508125112 | 58 | 347 | 0.0 | 7.0 | 0.00 | 0.63 | 0.00 | 99 | 1004.3 |
| 20260508124129 | 58 | 342 | 1.7 | 7.0 | 0.01 | 0.63 | 0.00 | 99 | 1004.3 |
| 20260508123105 | 57 | 337 | 3.5 | 7.8 | 0.01 | 0.63 | 0.00 | 99 | 1004.4 |
| 20260508122102 | 58 | 339 | 3.5 | 7.8 | 0.01 | 0.63 | 0.00 | 99 | 1004.3 |
| 20260508121058 | 58 | 316 | 1.7 | 7.8 | 0.01 | 0.64 | 0.00 | 99 | 1004.4 |
| 20260508120055 | 58 | 310 | 0.9 | 7.0 | 0.01 | 0.64 | 0.00 | 99 | 1004.4 |
| 20260508115052 | 59 | 293 | 0.0 | 7.0 | 0.01 | 0.64 | 0.64 | 99 | 1004.4 |
| 20260508114048 | 59 | 331 | 0.9 | 7.0 | 0.00 | 0.64 | 0.63 | 99 | 1004.1 |
| 20260508113044 | 59 | 348 | 0.9 | 7.0 | 0.00 | 0.64 | 0.63 | 99 | 1004.2 |
| 20260508112041 | 59 | 330 | 1.7 | 7.0 | 0.00 | 0.65 | 0.63 | 99 | 1004.3 |
| 20260508111039 | 59 | 310 | 1.7 | 7.0 | 0.00 | 0.65 | 0.63 | 99 | 1004.3 |
| 20260508110034 | 59 | 352 | 0.9 | 7.0 | 0.00 | 0.65 | 0.63 | 99 | 1004.4 |
| 20260508105030 | 60 | 321 | 0.9 | 7.0 | 0.00 | 0.66 | 0.63 | 99 | 1004.3 |
| 20260508104030 | 60 | 315 | 0.0 | 7.0 | 0.00 | 0.66 | 0.63 | 99 | 1004.5 |
| 20260508103024 | 60 | 5 | 0.9 | 7.0 | 0.00 | 0.67 | 0.63 | 99 | 1004.6 |
| 20260508102020 | 60 | 339 | 1.7 | 8.7 | 0.01 | 0.67 | 0.63 | 99 | 1004.7 |
| 20260508101016 | 60 | 329 | 0.0 | 7.8 | 0.05 | 0.67 | 0.63 | 99 | 1004.8 |
| 20260508100114 | 60 | 343 | 0.9 | 8.7 | 0.13 | 0.67 | 0.63 | 99 | 1004.8 |
| 20260508095111 | 59 | 308 | 4.3 | 10.4 | 0.20 | 0.67 | 0.63 | 99 | 1004.8 |
| 20260508094106 | 57 | 344 | 3.5 | 11.3 | 0.28 | 0.67 | 0.63 | 99 | 1004.9 |
| 20260508093125 | 60 | 0.0 | 3.5 | 0.37 | 0.67 | 0.63 | 99 | 1004.8 | |
| 20260508092100 | 61 | 0 | 0.0 | 8.7 | 0.37 | 0.66 | 0.61 | 99 | 1003.9 |
| 20260508091058 | 61 | 293 | 0.0 | 7.0 | 0.33 | 0.63 | 0.58 | 99 | 1003.9 |
| 20260508090053 | 61 | 0 | 0.0 | 1.7 | 0.25 | 0.54 | 0.50 | 99 | 1004.2 |
| 20260508085109 | 61 | 315 | 0.0 | 4.3 | 0.18 | 0.47 | 0.43 | 99 | 1004.1 |
| 20260508084046 | 61 | 301 | 0.0 | 9.6 | 0.13 | 0.39 | 0.34 | 99 | 1004.3 |
| 20260508083044 | 61 | 345 | 0.9 | 9.6 | 0.09 | 0.31 | 0.26 | 99 | 1004.2 |
| 20260508082039 | 61 | 319 | 4.3 | 14.8 | 0.12 | 0.30 | 0.25 | 99 | 1004.3 |
| 20260508081035 | 61 | 351 | 4.3 | 15.6 | 0.12 | 0.30 | 0.25 | 99 | 1004.4 |
| 20260508080053 | 61 | 359 | 8.7 | 18.2 | 0.12 | 0.30 | 0.25 | 98 | 1004.1 |
| 20260508075028 | 61 | 335 | 16.5 | 29.5 | 0.12 | 0.30 | 0.25 | 97 | 1003.8 |
| 20260508074025 | 61 | 353 | 26.1 | 37.4 | 0.11 | 0.26 | 0.21 | 96 | 1003.4 |
| 20260508073022 | 61 | 345 | 29.5 | 46.1 | 0.08 | 0.21 | 0.17 | 95 | 1003.6 |
| 20260508072039 | 61 | 338 | 24.3 | 37.4 | 0.05 | 0.18 | 0.13 | 95 | 1003.8 |
| 20260508071136 | 61 | 2 | 29.5 | 50.4 | 0.05 | 0.18 | 0.13 | 95 | 1003.6 |
| 20260508070111 | 61 | 346 | 34.8 | 48.7 | 0.05 | 0.18 | 0.13 | 97 | 1003.8 |
| 20260508065130 | 61 | 2 | 28.7 | 42.6 | 0.05 | 0.18 | 0.13 | 97 | 1004.1 |
| 20260508064103 | 62 | 349 | 30.4 | 42.6 | 0.02 | 0.15 | 0.11 | 96 | 1004.9 |
| 20260508063100 | 62 | 348 | 28.7 | 46.1 | 0.00 | 0.13 | 0.08 | 96 | 1004.8 |
| 20260508062056 | 62 | 350 | 26.9 | 45.2 | 0.02 | 0.13 | 0.08 | 96 | 1004.3 |
| 20260508061116 | 62 | 346 | 32.2 | 51.3 | 0.02 | 0.13 | 0.08 | 96 | 1004.5 |
| 20260508060049 | 61 | 357 | 28.7 | 46.1 | 0.02 | 0.13 | 0.08 | 97 | 1004.5 |
| 20260508055046 | 61 | 352 | 28.7 | 39.1 | 0.04 | 0.13 | 0.08 | 97 | 1004.7 |